Вернуться в каталог

SL-8 R/B

АктивенLEO
NORAD 5685·ROCKET BODY·🇷🇺 Russia

Запущен Dec 15, 1971 с Plesetsk Cosmodrome

Loading…

Ближайшие Пролёты (ближайшие 24 часа)

TLE

СвежийSource: Space-Track

Эпоха: Sep 14, 2026, 15:02 UTC

1 05685U 71111B   26257.62668924  .00000061  00000-0  84647-4 0  9990
2 05685  74.0284  37.5159 0022222  92.4141 278.6094 13.77144586750028

Отслеживайте SL-8 R/B в реальном времени с AllMySat

Download on the App Store